Probability
0 0 0 0 0 0 0 0 0 0 0 0 0 0 0 0 0 0 0 0 0 0 0 0 0 0 0 0 0 0 0 0 0 0 0 0 0 0 0 0 0 0 0
0 0 0 0 0 0 0 0 0 0 0 0 0 0 0 0 0 0 0 0 0 0 0 0 0 0 0 0 0 0 0 0 0 0 0 0 0 0 0 0 0 0 0
0 0 0 0 0 0 0 0 0 0 0 0 0 0 0 0 0 0 0 0 0 0 0 0 0 0 0 0 0 0 0 0 0 0 0 0 0 0 0 0 0 0 0
0 0 0 0 0 0 0 0 0 0 0 0 0 0 0 0 0 0 0 0 0 0 0 0 0 0 0 0 0 0 0 0 0 0 0 0 0 0 0 0 0 0 0
0 0 0 0 0 0 0 0 0 0 0 0 0 0 0 0 0 0 0 0 0 0 0 0 0 0 0 0 0 0 0 0 0 0 0 0 0 0 0 0 0 0 0
0 0 0 0 0 0 0 0 0 0 0 0 0 0 0 0 0 0 0 0 0 0 0 0 0 0 0 0 0 0 0 0 0 0 0 0 0 0 0 0 0 0 0
0 0 0 0 0 0 0 0 0 0 0 0 0 0 0 0 0 0 0 0 0 0 0 0 0 0 0 0 0 0 0 0 0 0 0 0 0 0 0 0 0 0 0
0 0 0 0 0 0 0 0 0 0 0 0 0 0 0 0 0 0 0 0 0 0 0 0 0 0 0 0 0 0 0 0 0 0 0 0 0 0 0 0 0 0 0
0 0 0 0 0 0 0 0 0 0 0 0 0 0 0 0 0 0 0 0 0 0 0 0 0 0 0 0 0 0 0 0 0 0 0 0 0 0 0 0 0 0 0
0 0 0 0 0 0 0 0 0 0 0 0 0 0 0 0 0 0 0 0 0 0 0 0 0 0 0 0 0 0 0 0 0 0 0 0 0 0 0 0 0 0 0
0 0 0 0 0 0 0 0 0 0 0 0 0 0 0 0 0 0 0 0 0 0 0 0 0 0 0 0 0 0 0 0 0 0 0 0 0 0 0 0 0 0 0
0 0 0 0 0 0 0 0 0 0 0 0 0 0 0 0 0 0 0 0 0 0 0 0 0 0 0 0 0 0 0 0 0 0 0 0 0 0 0 0 0 0 0
0 0 0 0 0 0 0 0 0 0 0 0 0 0 0 0 0 0 0 0 0 0 0 0 0 0 0 0 0 0 0 0 0 0 0 0 0 0 0 0 0 0 0
0 0 0 0 0 0 0 0 0 0 0 0 0 0 0 0 0 0 0 0 0 0 0 0 0 0 0 0 0 0 0 0 0 0 0 0 0 0 0 0 0 0 0
0 0 0 0 0 0 0 0 0 0 0 0 0 0 0 0 0 0 0 0 0 0 0 0 0 0 0 0 0 0 0 0 0 0 0 0 0 0 0 0 0 0 0
0 0 0 0 0 0 0 0 0 0 0 0 0 0 0 0 0 0 0 0 0 0 0 0 0 0 0 0 0 0 0 0 0 0 0 0 0 0 0 0 0 0 0
0 0 0 0 0 0 0 0 0 0 0 0 0 0 0 0 0 0 0 0 0 0 0 0 0 0 0 0 0 0 0 0 0 0 0 0 0 0 0 0 0 0 0
0 0 0 0 0 0 0 0 0 0 0 0 0 0 0 0 0 0 0 0 0 0 0 0 0 0 0 0 0 0 0 0 0 0 0 0 0 0 0 0 0 0 0
0 0 0 0 0 0 0 0 0 0 0 0 0 0 0 0 0 0 0 0 0 0 0 0 0 0 0 0 0 0 0 0 0 0 0 0 0 0 0 0 0 0 0
0 0 0 0 0 0 0 0 0 0 0 0 0 0 0 0 0 0 0 0 0 0 0 0 0 0 0 0 0 0 0 0 0 0 0 0 0 0 0 0 0 0 0
0 0 0 0 0 0 0 0 0 0 0 0 0 0 0 0 0 0 0 0 0 0 0 0 0 0 0 0 0 0 0 0 0 0 0 0 0 0 0 0 0 0 0
0 0 0 0 0 0 0 0 0 0 0 0 0 0 0 0 0 0 0 0 0 0 0 0 0 0 0 0 0 0 0 0 0 0 0 0 0 0 0 0 0 0 0
0 0 0 0 0 0 0 0 0 0 0 0 0 0 0 0 0 0 0 0 0 0 0 0 0 0 0 0 0 0 0 0 0 0 0 0 0 0 0 0 0 0 0
0 0 0 0 0 0 0 0 0 0 0 0 0 0 0 0 0 0 0 0 0 0 0 0 0 0 0 0 0 0 0 0 0 0 0 0 0 0 0 0 0 0 0
0 0 0 0 0 0 0 0 0 0 0 0 0 0 0 0 0 0 0 0 0 0 0 0 0 0 0 0 0 0 0 0 0 0 0 0 0 0 0 0 0 0 0
0 0 0 0 0 0 0 0 0 0 0 0 0 0 0 0 0 0 0 0 0 0 0 0 0 0 0 0 0 0 0 0 0 0 0 0 0 0 0 0 0 0 0
Wind_Speed
5 7 12 13 14 13 13 11 9 8 8 8 9 9 10 11 11 10 10 10 12 14 15 15 15 15 15 14 13 13 14 15 16 15 15 14 11 8 8 7 6 5 8
7 7 12 13 15 15 14 12 10 9 9 10 11 11 11 11 12 12 12 12 13 14 14 13 13 13 13 14 15 16 16 15 15 15 15 15 14 11 9 9 8 6 9
7 7 8 11 13 14 14 13 13 12 12 12 12 12 12 12 11 11 11 11 11 12 12 11 11 11 11 12 13 14 14 14 14 14 14 9 9 13 9 8 9 11 11
8 7 7 10 12 13 13 14 14 14 13 14 13 12 12 12 11 10 9 9 10 10 10 10 10 11 11 11 12 12 12 13 13 13 8 7 7 13 12 7 8 9 10
7 6 7 11 12 13 13 12 13 14 14 14 13 12 11 11 10 10 9 9 9 9 9 9 10 10 10 11 11 11 12 13 13 10 6 6 5 11 12 8 5 7 7
7 7 7 12 13 13 12 12 12 13 14 13 12 11 10 10 10 10 9 9 9 9 9 9 10 10 11 11 12 12 13 13 10 6 6 6 5 11 14 13 6 5 6
6 5 7 11 12 13 13 14 13 13 13 13 12 12 11 10 10 9 9 9 9 9 10 10 10 11 12 12 12 13 13 13 8 6 6 6 7 13 15 16 14 10 9
7 5 5 11 11 12 13 14 14 14 13 13 13 13 12 11 10 10 10 10 10 10 10 11 11 11 11 11 11 12 13 12 8 7 5 5 10 11 12 13 14 15 15
6 6 5 6 8 11 12 12 12 13 13 14 14 14 13 12 11 11 10 11 11 11 11 11 10 10 10 11 11 12 13 14 7 5 6 4 9 10 10 11 11 12 13
5 6 6 6 6 6 7 11 12 12 12 13 12 11 10 11 11 10 9 11 12 12 12 11 11 10 11 11 11 12 12 10 6 5 4 6 11 10 9 9 9 9 10
7 7 7 7 7 6 6 7 9 11 12 12 10 13 10 5 5 5 5 10 12 12 12 11 11 10 10 10 11 11 9 4 5 4 3 10 11 10 9 9 9 8 9
14 11 8 9 8 7 5 5 4 5 7 6 6 7 5 5 4 4 6 9 11 11 11 11 11 9 7 4 6 8 4 5 4 4 5 12 11 10 9 9 8 8 8
14 11 11 10 9 8 6 5 4 3 4 6 7 7 6 5 3 3 3 4 5 6 5 7 6 4 4 3 3 4 4 4 3 3 5 11 10 9 8 8 8 8 9
11 13 13 10 9 9 7 6 5 5 5 5 6 8 6 4 4 4 3 3 3 2 4 3 3 4 4 4 4 4 4 3 3 2 4 10 10 10 9 8 8 9 9
15 15 14 12 13 11 9 7 7 7 7 6 6 7 8 6 6 5 3 3 3 3 3 3 3 4 4 4 3 4 4 4 4 3 3 9 11 11 10 10 10 10 10
19 18 15 17 17 13 13 11 9 8 7 6 6 8 8 6 6 6 5 4 3 3 2 3 3 3 3 3 4 4 4 3 4 4 4 6 11 13 12 12 12 12 12
19 16 18 20 17 17 15 14 9 8 8 8 7 8 8 8 8 7 6 5 4 3 3 3 3 3 3 2 4 4 4 4 4 5 5 4 5 12 16 17 16 16 16
17 16 19 16 19 20 17 14 10 9 10 9 8 8 9 9 9 8 6 5 5 4 3 3 3 3 2 3 3 3 3 4 5 5 5 6 6 6 12 19 19 18 18
17 17 18 20 21 21 17 12 10 9 9 8 7 8 9 10 10 8 7 5 6 4 3 3 2 2 2 2 3 4 3 4 4 5 6 7 7 6 6 12 16 16 16
15 16 18 19 19 16 11 7 6 6 7 7 8 9 11 10 11 9 7 7 7 5 4 3 3 2 2 2 3 4 4 4 4 4 4 5 5 6 6 7 6 9 15
11 14 17 18 17 14 13 13 12 14 12 11 11 12 13 11 11 10 8 8 7 7 6 6 4 3 2 2 3 3 3 3 3 3 2 3 5 4 5 6 5 4 6
10 13 15 17 17 18 16 14 8 7 6 6 5 7 10 11 12 11 11 9 9 6 7 6 5 4 2 1 3 4 2 1 1 2 1 2 3 3 5 6 5 5 4
10 12 13 16 16 18 14 8 6 5 4 5 7 9 12 14 14 12 12 11 10 9 8 8 6 7 5 2 1 5 5 4 2 1 1 2 3 3 3 3 4 4 4
11 10 11 12 14 15 15 15 17 14 13 14 12 11 11 12 13 12 13 12 11 9 8 8 6 4 6 4 2 2 2 4 4 1 2 2 2 2 2 3 4 2 2
7 5 7 9 11 13 15 17 17 14 10 6 5 9 9 8 10 12 12 12 11 9 9 9 7 6 4 6 5 4 3 2 2 3 3 2 2 1 2 3 3 2 2
4 1 4 8 9 11 14 15 16 14 11 10 9 11 10 7 9 12 13 12 12 10 11 10 9 8 5 5 4 4 5 5 4 4 4 2 2 2 2 3 2 0 2
Wind_Direction
195 180 183 180 174 172 169 168 166 161 154 148 142 127 115 110 106 99 90 85 85 81 75 69 63 57 52 50 50 48 43 35 29 24 26 24 26 48 65 58 54 45 49
162 173 184 178 178 177 173 172 175 176 166 152 141 129 118 108 98 89 83 80 81 78 73 68 66 62 54 48 45 43 39 32 28 27 28 25 22 40 62 57 49 45 45
147 166 179 178 180 181 178 177 179 180 169 151 136 127 119 111 102 94 86 82 84 85 81 76 72 69 63 55 48 42 36 31 30 31 30 22 13 20 41 59 50 41 34
150 159 162 169 174 177 178 178 178 173 156 140 130 125 123 120 116 109 99 93 92 93 93 89 82 76 70 64 58 49 40 36 35 37 31 21 10 12 19 45 58 49 38
154 155 159 162 166 167 166 166 166 158 147 140 140 143 141 136 133 131 123 114 106 101 95 87 82 79 76 72 65 57 51 48 47 44 34 25 13 13 19 26 62 67 50
163 159 165 166 170 168 165 162 158 153 151 150 155 160 156 148 142 137 128 120 112 105 97 89 84 81 79 75 69 64 60 59 52 45 38 24 11 27 32 32 46 67 56
166 167 174 174 179 178 179 177 171 167 163 162 163 162 158 153 146 138 131 124 116 109 101 95 90 85 81 76 73 67 61 58 54 46 37 20 19 39 41 38 36 41 41
161 170 179 184 190 189 191 190 184 180 175 170 164 158 158 157 153 146 139 132 123 115 106 98 92 88 84 80 75 70 64 58 48 40 30 15 20 37 42 40 38 39 39
168 171 183 187 187 190 196 196 188 182 177 170 164 160 159 157 154 148 146 141 131 121 112 104 98 91 85 78 73 69 65 59 50 36 27 6 23 32 34 34 33 35 36
189 190 188 184 177 179 188 191 186 177 171 168 162 151 147 150 148 146 152 145 134 127 119 113 105 97 89 80 71 64 60 54 44 36 13 11 26 28 30 28 27 31 33
213 206 194 187 182 176 174 180 175 170 170 167 151 142 130 123 128 139 163 143 137 131 124 117 109 100 88 81 75 67 58 44 42 31 7 24 26 25 28 26 25 29 33
213 208 199 190 183 175 173 167 161 158 162 151 142 136 129 130 140 136 137 129 130 129 125 118 107 94 80 59 58 60 48 42 36 21 15 25 25 23 27 28 26 29 35
211 206 203 196 184 178 174 165 162 154 148 147 147 143 141 136 132 108 93 92 85 93 88 100 92 80 77 68 55 48 46 42 30 15 10 24 24 24 29 32 31 33 38
207 208 201 194 190 187 178 174 169 167 164 165 162 156 151 148 144 140 131 131 120 112 118 115 116 109 95 83 73 63 54 46 32 15 16 31 31 30 34 40 41 40 40
216 212 202 193 196 190 184 184 183 184 180 173 166 167 163 161 159 152 148 145 143 139 141 140 131 120 106 88 71 65 53 40 32 25 16 35 42 38 36 46 48 46 47
221 214 202 200 200 193 194 194 192 188 180 173 176 175 171 165 159 154 151 154 156 154 150 145 135 122 107 97 75 66 59 43 36 34 29 33 44 45 40 46 47 47 47
222 211 204 203 198 198 200 197 191 187 181 185 183 177 174 168 163 158 155 160 161 155 151 136 124 112 105 91 69 57 50 42 46 46 43 44 46 49 50 50 45 41 39
219 209 207 200 199 202 201 196 193 188 187 188 179 178 178 172 165 159 160 162 157 156 160 156 145 116 92 82 71 52 44 44 48 52 57 59 60 57 51 51 44 37 31
216 211 204 201 200 201 199 193 189 184 189 184 175 178 180 176 170 164 163 158 154 157 167 166 135 134 113 84 74 62 49 56 56 59 65 68 68 64 54 46 41 34 28
216 209 206 202 202 193 183 172 168 175 184 179 181 184 180 180 173 164 160 158 156 157 170 168 136 116 112 113 90 71 51 62 68 59 72 76 68 64 58 51 40 27 26
215 207 205 200 196 182 183 185 185 193 191 191 192 186 182 176 172 169 165 161 167 173 174 161 140 136 121 142 115 86 49 50 65 50 67 85 65 62 58 44 32 28 17
219 211 206 201 192 188 191 191 188 176 180 185 174 173 177 173 173 176 170 173 174 167 169 176 160 145 130 124 133 119 102 36 360 7 20 76 69 62 51 32 21 20 18
232 216 207 200 193 191 180 162 135 113 106 153 181 187 188 182 179 178 176 173 176 176 181 183 179 158 145 133 131 143 151 193 230 308 337 27 43 50 42 16 9 11 20
242 220 205 193 189 184 175 177 177 185 190 192 190 189 184 183 179 176 175 176 177 178 178 182 181 178 143 145 127 73 112 145 156 202 304 348 12 18 2 349 333 339 23
273 225 194 181 182 180 182 186 188 197 198 169 158 165 172 178 179 177 176 177 178 179 178 175 176 181 164 154 154 147 119 73 109 152 216 309 342 295 265 300 294 309 40
328 256 173 169 177 179 186 188 193 194 179 166 171 175 177 180 185 186 181 182 181 180 180 180 179 182 179 161 161 157 155 157 173 163 175 206 276 288 278 284 263 214 95